RH
17 18 21 22 21 22 17 24 45 67 86 89 82 74 87 102 98 100 101 99 101 99 99 99 99 100 101 100 100 99 99 100 100 99 98 96 97 100 100 100 101 101 100 100 99 99 100 101 100 100 100 100
14 17 20 25 27 30 28 26 32 53 86 99 94 80 78 94 97 97 101 99 99 100 100 100 100 101 100 100 100 100 100 100 101 101 100 98 99 100 100 100 100 100 100 100 99 98 97 98 100 100 100 100
9 13 17 23 29 34 37 40 43 50 70 90 100 86 69 84 96 93 98 102 100 99 100 100 100 101 100 100 101 100 100 100 100 100 101 99 100 101 101 101 100 100 100 100 99 100 97 93 95 100 101 100
6 9 12 18 24 33 39 45 53 63 74 81 85 79 68 79 96 97 90 93 102 101 99 101 100 100 100 100 101 100 100 100 100 100 100 100 100 100 101 100 100 101 100 100 100 100 99 93 89 94 100 101
4 6 7 12 17 25 36 44 51 62 79 89 87 79 69 70 85 98 86 74 90 102 100 100 100 100 100 100 100 101 100 99 100 101 100 100 100 100 100 100 100 101 99 100 100 100 100 98 93 91 96 101
3 5 5 7 11 16 25 36 47 56 65 79 91 94 86 76 73 85 85 67 69 90 99 100 101 100 100 100 100 100 100 100 100 100 100 100 100 100 100 100 100 101 99 99 100 100 100 100 99 95 96 100
2 3 5 5 6 10 16 23 34 47 58 65 78 92 97 94 85 81 86 78 67 74 88 96 99 99 100 100 100 101 100 100 101 100 101 101 100 101 100 100 100 101 101 100 100 100 100 100 100 100 98 98
4 3 3 5 5 6 10 15 21 29 43 56 67 81 91 96 98 94 91 92 86 80 83 91 95 96 96 96 99 102 101 100 100 100 101 101 101 100 99 101 101 101 101 100 100 100 100 101 100 100 99 98
5 4 3 3 5 6 8 11 17 21 26 38 51 66 79 86 93 99 99 97 98 96 93 91 94 96 93 92 95 97 100 101 100 101 101 101 102 101 101 101 102 102 101 100 101 100 100 100 100 100 100 100
7 5 4 3 3 5 8 12 19 25 25 26 34 47 63 76 82 90 97 100 100 100 99 96 95 99 99 97 95 93 95 98 100 101 100 101 102 102 101 97 96 97 97 99 102 101 100 99 100 100 99 100
8 7 5 4 4 4 7 13 23 36 41 36 31 35 45 61 74 80 86 92 98 100 100 97 94 97 101 101 99 96 92 92 96 98 101 102 99 96 94 89 88 90 90 93 96 99 100 98 98 99 99 100
9 9 8 5 4 5 6 11 20 36 54 60 54 47 44 47 58 70 77 82 89 94 99 99 96 96 100 101 101 101 94 90 90 92 98 100 94 87 84 82 81 84 88 88 89 90 91 89 90 94 95 98
9 11 11 9 6 4 5 9 16 27 46 66 75 74 69 60 53 54 64 74 81 86 93 98 99 99 100 101 101 101 96 92 90 90 92 91 85 78 75 75 74 76 81 84 87 89 88 83 81 85 86 87
9 11 12 13 11 7 5 6 12 22 36 54 72 84 89 87 76 63 56 62 72 80 86 91 97 99 100 100 101 100 96 94 95 94 92 85 77 69 65 67 69 70 72 78 88 96 98 89 78 76 76 78
9 9 12 14 14 12 9 5 7 16 31 47 62 78 92 98 96 89 77 66 65 72 79 82 87 92 97 100 101 101 98 96 97 98 96 88 76 65 60 59 62 66 68 75 85 97 102 93 87 85 83 89
10 10 10 12 15 16 15 11 6 8 20 38 54 68 84 97 101 102 99 89 78 73 74 78 80 81 86 92 96 98 98 97 96 95 95 90 79 68 61 56 56 59 64 74 81 92 93 83 93 101 96 101
11 11 10 11 13 16 18 17 14 8 7 18 36 53 69 84 94 99 102 102 97 87 79 78 80 79 78 79 83 87 89 90 89 88 87 83 76 69 62 56 54 52 57 68 72 77 76 73 92 104 99 100
11 11 11 10 11 13 16 19 20 17 11 6 13 30 51 67 78 87 95 100 102 100 93 85 81 82 81 77 74 74 76 78 78 77 76 73 69 64 60 56 52 48 50 59 69 73 67 73 93 100 100 101
10 10 9 9 10 10 13 17 20 22 21 15 7 9 25 48 65 74 82 90 96 101 102 98 90 84 83 82 78 73 69 68 68 67 66 65 63 59 55 52 48 47 46 48 65 84 82 83 97 98 99 103
9 8 8 8 8 9 10 14 19 23 25 25 20 11 9 22 44 63 74 81 86 93 98 101 99 92 85 83 83 81 75 70 66 62 59 57 57 55 51 47 44 42 44 41 47 80 100 96 99 101 97 100
9 8 7 7 7 8 9 11 15 20 26 29 29 25 16 10 17 36 57 73 81 87 91 95 100 99 93 87 85 85 83 80 74 67 61 55 51 50 48 44 41 37 40 40 34 59 98 102 97 101 100 98
9 8 7 6 6 7 8 10 12 16 23 29 32 33 30 20 12 12 25 46 65 80 86 88 92 98 99 94 88 85 85 85 83 77 69 61 53 48 46 42 39 35 33 37 32 39 77 100 100 100 100 101
9 8 7 7 7 7 8 9 11 14 19 26 32 36 36 32 24 16 11 16 32 54 73 83 87 91 97 99 94 89 86 86 87 85 79 71 63 53 48 43 39 36 30 32 31 29 46 71 94 104 98 99
8 8 8 7 8 8 9 10 11 12 16 23 30 35 39 38 34 28 19 11 11 21 41 63 79 85 90 95 97 95 90 87 86 88 87 81 74 63 55 48 43 39 33 30 29 28 29 33 68 104 99 97
8 8 7 7 8 10 11 12 13 13 13 19 27 32 36 40 40 36 30 21 13 9 14 29 51 70 80 85 91 95 95 92 88 87 89 89 85 76 65 56 50 45 39 34 29 27 27 20 38 71 76 83
8 9 8 7 8 10 12 13 14 15 14 15 24 31 34 38 41 39 35 29 21 14 9 9 19 38 58 71 79 86 91 95 95 91 89 90 91 88 79 68 59 52 45 41 36 29 28 23 21 32 44 64
8 9 9 8 8 10 12 13 14 15 14 15 22 29 33 37 39 40 38 35 29 23 16 10 8 12 26 45 62 75 82 88 93 96 94 91 91 91 90 83 72 62 53 46 43 37 32 29 22 20 31 55
8 9 10 9 9 10 12 13 14 16 15 16 23 28 33 36 39 41 41 39 36 32 27 20 14 9 8 16 33 52 69 78 84 90 96 97 94 90 90 92 88 78 66 54 47 44 38 36 31 23 21 33
8 9 10 10 9 11 14 15 15 18 20 21 25 28 32 36 38 39 41 41 40 37 35 30 24 18 11 7 10 22 40 58 70 78 86 93 97 94 89 90 93 92 85 70 56 48 44 40 38 33 26 20
9 10 10 11 11 12 17 20 20 21 25 27 29 30 31 35 37 38 38 39 39 39 38 36 33 29 24 16 9 7 13 26 44 59 71 80 88 93 92 89 90 94 96 89 74 59 50 45 41 38 35 29
8 10 11 11 12 13 16 22 26 27 29 31 32 32 32 33 35 37 38 37 37 37 36 36 36 35 33 29 22 15 9 8 15 29 46 61 73 82 88 89 88 91 95 96 92 79 64 53 47 42 39 37
Wind_Speed
86 85 84 83 83 81 80 77 75 74 74 75 76 77 77 76 72 70 71 72 70 68 69 71 73 76 77 76 73 71 71 72 73 74 74 74 73 70 67 69 72 74 73 72 70 68 68 67 66 64 62 61
86 85 85 84 83 83 82 81 79 78 77 78 79 80 82 81 79 77 72 71 71 68 67 68 71 72 73 76 77 75 70 68 69 73 75 75 76 74 70 67 68 70 73 74 73 71 70 70 68 67 65 64
85 85 84 84 84 83 83 82 81 80 80 81 81 83 85 84 85 86 80 74 73 72 70 69 71 72 72 72 75 77 76 71 67 68 72 75 75 75 73 70 69 68 69 71 73 72 73 74 71 69 68 67
84 85 84 83 84 84 83 83 83 81 81 82 83 84 86 87 88 90 90 85 79 76 73 70 69 70 71 71 73 76 78 77 72 68 67 69 71 72 73 72 72 72 70 69 70 72 73 75 76 72 70 69
80 84 85 84 83 83 84 83 84 84 83 82 82 84 86 88 90 91 94 95 91 85 81 76 71 69 68 67 69 74 78 79 77 74 70 68 68 68 69 71 72 73 74 71 69 69 70 72 76 76 73 71
73 80 84 85 84 83 84 84 84 84 85 85 83 83 85 87 89 90 93 97 98 94 91 88 83 77 72 68 67 70 76 79 78 77 77 75 72 70 68 68 69 71 74 75 72 69 69 70 71 74 75 73
66 73 80 84 85 84 84 84 85 85 85 86 86 85 84 85 87 89 91 93 96 96 94 91 90 88 84 79 73 71 73 76 75 73 74 76 75 73 71 69 68 68 70 75 75 72 71 71 70 71 74 75
60 66 73 79 83 84 85 85 85 86 86 86 86 87 87 86 86 87 89 90 91 93 93 90 88 88 88 87 83 79 77 76 75 69 68 72 73 71 71 70 68 66 67 70 74 75 73 72 72 71 71 73
55 60 65 72 78 81 83 84 85 86 87 87 86 87 88 89 88 86 86 88 89 90 91 90 88 87 87 88 87 86 83 80 77 71 67 68 71 70 67 67 68 67 67 64 66 72 74 73 73 74 73 71
50 55 59 64 70 76 79 81 83 84 86 88 88 88 88 89 91 90 88 87 87 88 90 91 89 87 86 87 87 87 87 85 82 78 74 70 71 72 70 70 70 70 70 65 62 66 72 73 73 74 76 74
46 50 55 59 63 69 74 77 79 81 83 86 88 89 89 89 91 92 93 90 88 86 87 89 91 90 87 87 87 87 88 89 87 85 82 78 77 77 77 77 75 72 72 70 69 69 71 74 74 73 74 75
43 46 51 55 59 63 69 73 76 78 80 83 85 87 89 91 92 92 93 93 92 90 87 86 89 92 91 89 88 88 88 89 90 89 87 85 84 82 80 80 78 75 72 72 72 72 74 76 75 74 74 74
40 42 46 50 55 60 65 69 73 76 78 80 82 84 86 89 91 93 93 93 93 93 92 89 88 90 92 91 91 90 90 88 89 89 88 87 87 85 83 81 80 78 75 73 71 71 73 76 77 75 76 76
38 38 40 44 49 55 61 66 70 74 76 78 80 82 84 85 88 90 92 94 94 93 93 93 92 90 91 92 92 91 91 90 89 88 88 88 87 87 85 83 81 79 77 74 70 68 69 72 74 74 75 76
39 38 37 39 43 49 55 61 67 71 74 76 78 81 82 84 85 87 89 92 94 94 93 93 94 93 93 92 92 91 90 91 90 88 88 87 87 86 86 84 82 80 78 75 73 70 68 66 66 67 69 71
44 41 39 38 40 43 48 54 60 68 73 76 77 79 81 83 84 85 86 88 91 93 93 93 93 93 94 94 93 92 91 90 90 90 88 87 86 85 84 84 83 81 78 77 76 76 73 68 64 62 64 68
47 46 43 40 39 40 44 48 53 60 68 74 78 79 81 83 84 84 84 86 87 89 91 92 92 92 92 92 93 93 92 91 91 90 89 88 87 85 84 83 83 82 80 79 79 79 77 73 69 64 63 68
49 49 47 44 41 40 42 46 49 53 59 67 75 79 81 83 85 86 85 84 85 86 88 89 91 91 91 91 91 91 92 91 90 90 90 89 87 86 84 83 83 82 81 80 79 78 76 75 74 68 63 65
50 50 50 48 46 43 42 44 47 50 53 58 65 73 80 83 85 86 87 87 85 85 85 86 88 90 91 91 90 90 90 90 90 90 90 89 88 86 85 84 83 83 82 81 78 77 76 76 78 72 65 65
52 52 51 49 48 46 45 45 46 48 51 54 56 62 71 79 84 86 87 88 87 86 86 85 86 87 88 90 90 90 89 89 89 89 89 89 89 87 86 85 84 83 83 83 80 79 78 78 79 78 70 63
53 53 52 50 49 47 47 47 47 46 48 52 53 54 59 68 77 84 86 87 87 87 87 87 86 85 86 87 89 90 90 89 88 88 88 89 89 88 87 86 85 84 84 84 83 83 83 80 77 79 77 69
55 54 53 52 50 47 46 46 48 47 45 47 50 52 53 56 63 74 82 86 87 87 87 88 88 86 86 86 87 89 90 90 89 88 88 88 89 89 88 87 86 85 85 86 85 85 87 86 79 76 78 78
56 55 53 51 50 48 45 43 45 47 45 43 45 48 51 51 53 58 68 78 85 87 87 87 88 88 87 87 87 88 89 90 90 89 88 87 88 89 89 88 87 87 86 86 87 87 88 90 87 81 79 78
57 56 54 50 47 45 44 41 41 43 44 42 41 42 46 48 48 49 53 62 73 81 86 87 88 89 89 88 87 87 88 89 90 90 90 88 88 89 90 90 89 88 88 87 87 88 90 91 91 89 86 81
58 56 54 50 44 40 39 39 38 38 39 40 38 38 40 44 45 45 46 50 58 68 78 84 87 88 89 89 88 88 88 89 90 90 90 90 89 88 89 90 91 90 90 89 88 89 90 92 92 93 93 89
58 57 54 50 44 38 33 33 34 34 35 35 35 34 35 39 43 44 44 45 47 54 63 74 82 86 89 89 89 88 87 88 89 90 90 91 90 90 89 89 91 91 91 91 90 90 90 91 93 94 95 95
59 57 54 50 44 38 32 29 29 29 30 30 31 31 32 34 38 42 43 43 43 44 49 57 67 77 84 88 89 89 88 88 88 89 90 91 91 91 91 90 90 91 92 92 92 91 91 91 93 94 95 96
60 57 54 50 44 38 32 26 24 25 25 26 28 29 30 31 34 36 39 41 42 41 42 45 51 60 71 80 87 90 90 89 88 88 89 90 92 92 92 92 92 92 92 93 93 93 93 93 93 94 95 97
61 57 54 49 43 38 33 27 21 21 22 23 25 27 28 29 30 32 35 38 40 41 41 41 42 46 54 65 77 85 89 90 90 89 88 89 91 92 93 93 93 93 93 93 94 93 93 94 94 94 95 97
60 57 53 49 43 36 32 28 22 19 20 21 23 25 27 27 28 30 31 34 37 40 41 42 42 42 44 49 59 70 81 88 91 91 90 90 89 91 93 94 93 93 94 94 95 95 94 94 95 94 95 96
60 56 53 49 44 37 31 28 24 20 19 20 22 23 24 25 26 28 29 31 33 36 38 41 43 43 43 44 47 53 64 76 86 91 93 93 91 90 91 93 94 93 94 95 96 96 96 96 95 95 95 96
Wind_Direction
251 250 248 246 244 240 237 235 233 231 231 233 233 232 233 237 239 240 239 237 234 233 234 236 238 240 241 241 240 238 237 240 242 242 241 239 238 240 241 241 241 242 241 241 240 239 238 237 238 238 238 235
251 250 249 248 246 243 239 236 233 231 230 231 232 230 229 231 234 236 237 236 235 234 233 232 233 235 238 239 241 240 237 236 238 240 241 241 239 238 240 240 241 241 242 242 241 240 239 237 237 238 239 237
251 251 250 249 247 245 242 238 235 233 231 230 231 230 228 228 230 233 235 236 236 236 237 236 235 237 238 240 241 241 240 238 237 236 237 239 239 238 238 239 239 240 240 241 242 242 241 239 237 238 239 238
249 250 250 249 248 246 244 241 237 234 233 232 232 232 230 228 228 230 233 236 237 236 237 237 238 239 239 240 241 242 242 241 240 237 235 235 235 236 236 237 238 239 239 240 240 241 241 241 239 238 239 239
250 249 249 249 248 247 245 244 240 236 233 233 233 234 234 231 230 230 231 234 237 238 237 236 237 238 238 238 239 241 242 242 242 241 239 237 235 235 235 236 237 238 238 238 237 237 239 240 239 238 239 239
253 250 249 249 248 248 246 245 243 241 237 233 233 234 235 235 233 232 232 233 236 238 239 238 238 238 238 238 238 239 241 243 243 243 243 242 241 240 239 237 237 237 237 238 238 236 237 238 239 238 237 238
257 253 250 249 248 248 247 247 245 244 241 238 235 234 235 236 236 235 234 233 235 237 239 239 239 239 239 239 239 240 240 241 243 244 244 244 244 244 243 242 241 240 239 238 239 239 238 238 238 237 236 236
261 257 253 251 249 248 247 247 247 246 244 242 239 236 235 236 237 237 236 235 235 237 238 239 238 238 238 238 239 240 240 240 240 241 241 242 243 243 243 243 242 241 242 241 240 240 240 240 238 237 236 235
265 261 257 254 251 249 247 246 246 246 246 245 243 240 238 236 236 237 238 237 236 236 237 238 238 238 238 237 237 237 238 239 238 237 237 238 240 240 239 239 239 239 240 242 243 242 241 241 240 239 237 235
270 264 260 258 254 251 249 247 246 245 245 245 245 243 241 239 238 237 237 237 237 237 237 237 238 237 237 236 236 235 236 237 237 236 235 234 235 235 235 237 239 239 240 239 240 242 243 242 242 240 238 236
276 268 262 259 257 254 251 249 247 245 245 244 244 244 243 241 240 239 238 238 237 237 238 237 237 237 236 236 235 234 235 235 236 236 236 235 235 236 237 239 239 240 241 240 239 241 243 243 243 242 240 237
285 276 268 261 258 255 253 250 248 247 246 244 243 243 243 242 241 241 240 240 239 238 238 238 237 237 237 236 235 234 234 234 235 236 236 236 237 238 238 239 239 239 239 240 240 241 242 244 244 244 243 240
295 285 277 270 262 257 254 252 250 248 247 246 244 243 242 242 241 241 241 241 241 240 239 239 238 238 238 238 236 235 235 234 235 235 235 236 236 237 238 238 238 238 238 238 239 241 242 243 244 244 245 244
306 295 285 278 271 264 258 253 251 249 247 246 246 244 243 242 241 241 241 241 241 242 241 241 240 239 239 239 239 237 236 236 235 235 235 235 235 236 236 237 237 237 237 236 235 236 240 242 245 246 247 247
314 306 295 284 277 271 265 259 253 250 248 247 246 245 244 244 243 241 240 240 240 241 242 242 241 241 241 241 241 240 239 238 237 237 236 236 235 235 235 235 235 235 235 234 232 231 233 238 242 245 245 246
316 312 306 296 284 276 271 266 260 254 250 247 246 245 244 244 244 242 241 240 240 240 241 242 242 242 242 242 242 242 241 240 239 238 238 237 236 234 234 234 233 233 232 232 231 229 231 233 233 236 239 239
316 312 308 302 293 282 275 270 265 260 254 250 247 245 244 243 243 243 242 241 241 240 240 241 241 242 242 242 242 242 242 241 241 240 239 238 237 235 234 233 232 232 230 229 230 231 231 230 227 229 235 237
315 312 307 301 295 287 278 271 267 264 260 255 250 247 245 244 243 242 242 242 241 241 240 240 240 241 241 241 242 242 242 242 241 241 240 239 238 236 234 232 231 231 229 228 229 231 231 228 225 225 230 236
318 313 308 302 294 287 280 274 269 265 263 260 255 251 248 246 244 243 242 242 241 241 241 240 240 239 240 240 241 241 242 242 242 241 241 240 239 237 235 233 231 230 229 228 226 227 228 226 223 224 226 233
321 316 311 304 296 288 280 275 270 266 264 262 260 256 251 248 246 245 243 242 241 240 241 241 240 239 239 239 240 240 240 241 241 241 240 240 240 238 237 234 232 230 229 228 225 222 223 223 222 222 224 229
325 321 316 309 300 291 282 274 270 267 265 263 262 260 256 251 248 246 245 244 242 241 240 240 240 240 239 239 238 239 239 239 240 240 239 239 239 239 237 235 233 231 228 227 226 221 219 220 220 221 222 223
330 326 321 314 307 297 287 277 271 267 265 264 263 262 261 258 253 249 247 245 244 242 241 240 240 240 239 239 238 238 238 238 238 239 239 238 238 238 238 237 234 232 230 227 226 223 219 218 218 220 222 223
333 330 325 319 312 304 294 282 273 268 265 264 264 262 262 261 259 255 251 248 246 245 243 241 240 239 239 239 238 238 237 237 237 237 237 237 237 237 237 237 236 233 231 228 227 225 221 219 219 220 222 223
336 334 330 324 317 309 301 291 279 270 265 263 263 262 261 261 262 261 257 252 249 246 245 243 241 240 239 239 239 238 238 237 237 237 236 236 236 237 237 236 236 235 233 230 228 226 224 222 221 220 222 223
340 337 334 330 323 314 306 298 288 277 268 263 264 265 263 262 261 261 261 258 254 249 246 245 243 241 240 239 239 239 238 238 237 236 236 236 235 235 236 236 236 235 234 232 230 228 226 225 223 222 222 222
344 341 339 335 329 322 313 303 294 285 275 268 266 268 268 264 261 260 260 260 259 256 252 248 245 243 241 240 240 239 239 239 238 237 236 236 235 234 234 235 236 236 235 234 232 229 228 226 226 225 224 222
347 344 342 340 334 329 322 311 300 291 282 274 270 271 272 268 264 262 262 261 261 261 258 255 250 247 244 242 241 241 239 239 239 239 238 236 235 234 234 234 234 235 235 234 233 232 230 228 227 226 225 224
350 347 345 343 339 333 328 321 308 297 287 280 276 276 276 273 269 265 264 263 262 261 260 259 256 252 248 244 243 242 241 240 238 238 238 238 236 235 233 233 233 234 235 234 234 233 232 230 229 227 226 226
352 350 347 346 343 337 332 329 320 306 295 287 282 282 282 278 274 269 266 265 264 263 262 261 259 257 253 249 245 243 242 242 240 238 237 238 238 236 234 233 232 233 233 234 233 233 233 232 230 229 228 227
353 351 349 348 347 342 335 332 328 316 304 296 291 288 287 283 278 273 270 268 266 265 264 263 261 260 257 254 250 247 244 243 242 241 239 237 237 237 236 234 233 232 233 233 233 233 232 233 232 231 230 229
354 352 350 349 349 346 340 333 329 323 313 305 300 296 293 289 284 279 275 272 270 267 265 264 262 261 259 257 254 251 248 245 244 243 242 240 237 237 236 236 234 233 233 232 232 232 232 232 232 232 231 231